Location: Cointrin
(46.2167°N, 6.1167°E)
Time: 02:55:57
(UTC+00:00)

BlueWalker 3 - Visible Passes

Search period start: 17 January 2026 00:00
Search period end: 27 January 2026 00:00
Orbit: 451 x 463 km, 53.2° (Epoch: 16 January)

Date Brightness Start Highest point End Pass type
(mag) Time Alt. Az. Time Alt. Az. Time Alt. Az.
19 Jan 3.9 18:31:55 10° SSW 18:33:10 18° S 18:33:10 18° S visible
20 Jan 3.3 17:56:57 10° S 17:59:40 21° SE 17:59:40 21° SE visible
20 Jan 5.1 19:33:21 10° WSW 19:33:26 10° WSW 19:33:26 10° WSW visible
21 Jan 3.6 17:22:07 10° S 17:24:27 17° SE 17:26:05 13° E visible
21 Jan 3.6 18:57:58 10° WSW 18:59:50 29° WSW 18:59:50 29° WSW visible
22 Jan 1.6 18:22:37 10° SW 18:26:10 80° SSE 18:26:10 80° SSE visible
23 Jan 1.8 17:47:18 10° SW 17:50:50 63° SE 17:52:26 29° ENE visible
23 Jan 4.7 19:25:13 10° W 19:26:11 16° WNW 19:26:11 16° WNW visible
24 Jan 2.1 17:12:02 10° SW 17:15:29 49° SE 17:18:37 12° ENE visible
24 Jan 3.2 18:49:42 10° W 18:52:22 34° NW 18:52:22 34° NW visible
25 Jan 2.5 18:14:12 10° W 18:17:38 44° NNW 18:18:30 36° NNE visible
26 Jan 2.3 17:38:42 10° WSW 17:42:11 51° NNW 17:44:35 18° NE visible
26 Jan 4.4 19:17:10 10° WNW 19:18:20 17° NW 19:18:20 17° NW visible
